Total_Precipitation_Accumulation
0.06 0.08 0.11 0.13 0.13 0.10 0.11 0.16 0.22 0.27 0.24 0.28 0.46 0.75 1.06 1.22 1.52 1.43 1.43 1.58 1.70 1.82 2.12 2.56 2.85 3.37 3.96 4.40 4.83 5.04 5.12 5.01 4.86 4.52 4.22 3.97 3.72 3.51 3.24 3.04 2.96 2.91 2.83 3.04
0.07 0.11 0.09 0.09 0.09 0.10 0.12 0.18 0.22 0.26 0.27 0.35 0.55 0.81 1.16 1.24 1.33 1.31 1.21 1.27 1.46 1.80 2.05 2.56 2.88 3.09 3.51 4.03 4.51 4.84 5.04 4.93 4.55 4.22 4.08 4.00 3.96 3.56 3.29 3.26 3.42 3.23 3.22 3.25
0.11 0.11 0.09 0.08 0.08 0.11 0.16 0.19 0.23 0.24 0.26 0.46 0.63 1.14 1.39 1.30 1.30 1.28 1.22 1.27 1.45 1.89 2.33 2.61 2.82 2.95 3.19 3.59 3.90 4.01 4.21 4.19 4.03 4.08 4.12 4.10 4.13 3.73 3.67 3.69 3.71 3.48 3.48 3.50
0.08 0.06 0.07 0.10 0.12 0.15 0.22 0.21 0.18 0.21 0.31 0.58 0.70 1.43 1.83 1.62 1.50 1.56 1.55 1.46 1.71 1.99 2.03 2.22 2.50 2.77 2.94 3.18 3.50 3.71 3.78 3.75 3.68 3.81 3.88 3.79 3.61 3.50 3.67 3.95 3.90 3.63 3.42 3.31
0.08 0.07 0.08 0.11 0.12 0.15 0.19 0.19 0.21 0.26 0.35 0.58 0.75 1.17 1.73 1.65 1.82 1.78 1.59 1.65 1.92 1.88 1.76 1.88 2.08 2.40 2.52 2.84 3.12 3.32 3.59 3.68 3.63 3.72 3.72 3.76 3.59 3.58 3.64 3.66 3.72 3.52 3.34 3.03
0.07 0.08 0.08 0.09 0.10 0.12 0.15 0.20 0.31 0.42 0.59 1.02 0.82 0.95 1.55 1.63 1.53 1.53 1.50 1.45 1.64 1.57 1.54 1.76 1.94 2.23 2.39 2.51 2.65 2.76 2.98 3.25 3.43 3.48 3.45 3.51 3.47 3.46 3.42 3.42 3.33 3.11 2.96 2.77
0.12 0.14 0.12 0.10 0.12 0.14 0.16 0.30 0.78 1.20 1.39 1.35 0.72 0.85 1.38 1.27 1.18 1.20 1.31 1.33 1.36 1.30 1.28 1.51 1.67 1.84 2.05 2.16 2.27 2.42 2.71 3.06 3.14 3.10 3.06 3.18 3.27 3.28 3.22 3.21 3.07 2.85 2.63 2.41
0.21 0.28 0.18 0.12 0.13 0.16 0.19 0.27 0.73 1.08 1.21 1.13 0.89 1.30 1.71 1.27 1.09 1.13 1.23 1.22 1.17 1.09 1.05 1.21 1.48 1.79 1.94 1.92 1.99 2.14 2.45 2.72 2.76 2.70 2.84 3.12 3.19 3.23 3.16 3.20 2.88 2.63 2.42 2.38
0.17 0.19 0.13 0.13 0.16 0.17 0.19 0.22 0.32 0.53 0.64 0.92 1.15 1.45 1.45 0.99 0.92 0.98 1.05 1.08 1.18 1.12 1.04 1.14 1.24 1.45 1.57 1.63 1.70 1.85 2.28 2.57 2.66 2.74 2.87 3.01 3.13 3.10 3.06 2.97 2.70 2.44 2.46 2.42
0.13 0.13 0.14 0.13 0.14 0.17 0.18 0.23 0.28 0.42 0.70 1.06 1.25 1.54 1.67 1.18 0.95 0.71 0.69 0.79 0.85 0.86 0.87 0.95 1.01 1.13 1.24 1.41 1.68 1.87 2.05 2.37 2.48 2.58 2.75 2.78 3.02 2.92 2.77 2.74 2.52 2.29 2.20 2.31
0.12 0.12 0.15 0.15 0.16 0.20 0.21 0.23 0.27 0.33 0.47 0.82 1.37 1.56 1.19 0.96 0.82 0.76 0.72 0.81 0.85 0.81 0.78 0.83 0.96 1.10 1.20 1.35 1.57 1.71 1.76 1.99 2.18 2.32 2.52 2.51 2.52 2.60 2.70 2.55 2.28 2.22 2.26 2.39
0.08 0.10 0.17 0.22 0.26 0.23 0.21 0.20 0.24 0.35 0.36 0.48 0.86 1.20 0.83 0.82 0.86 0.82 0.81 0.87 0.95 0.92 0.84 0.89 1.06 1.19 1.27 1.42 1.48 1.53 1.60 1.81 2.02 2.22 2.44 2.51 2.51 2.57 2.62 2.48 2.29 2.29 2.37 2.39
0.10 0.12 0.27 0.47 0.53 0.36 0.23 0.19 0.21 0.24 0.25 0.40 0.74 1.06 0.72 0.65 0.79 0.98 1.27 1.43 1.18 1.01 0.94 1.00 1.10 1.16 1.15 1.26 1.41 1.45 1.47 1.68 1.91 2.15 2.46 2.63 2.69 2.67 2.60 2.41 2.21 2.12 2.08 2.12
0.15 0.14 0.27 0.55 0.63 0.50 0.35 0.24 0.21 0.20 0.28 0.37 0.49 0.81 0.78 0.79 0.86 1.05 1.20 1.12 1.07 1.01 0.96 1.04 1.05 1.18 1.17 1.20 1.35 1.38 1.44 1.55 1.83 2.08 2.29 2.45 2.35 2.29 2.31 2.18 1.99 1.90 1.90 1.93
0.20 0.18 0.19 0.23 0.34 0.36 0.33 0.30 0.26 0.22 0.21 0.37 0.46 0.64 0.76 0.84 0.92 1.12 1.25 1.20 1.08 0.93 0.86 0.89 0.90 0.97 1.02 1.16 1.31 1.25 1.29 1.37 1.54 1.74 1.85 2.02 2.02 1.98 1.97 2.00 2.02 2.03 2.07 2.00
0.25 0.29 0.28 0.27 0.29 0.33 0.37 0.35 0.30 0.25 0.22 0.28 0.42 0.67 0.88 0.90 0.91 1.06 1.08 0.95 0.81 0.72 0.61 0.58 0.77 0.87 0.84 0.86 0.98 0.96 1.02 1.18 1.36 1.46 1.59 1.85 1.99 2.02 2.01 2.07 2.21 2.25 2.19 2.14
0.31 0.38 0.41 0.39 0.34 0.35 0.46 0.45 0.38 0.30 0.29 0.31 0.47 0.70 0.97 0.84 0.75 0.86 0.92 0.87 0.80 0.79 0.61 0.57 0.65 0.81 0.83 0.83 0.84 0.96 1.10 1.23 1.34 1.49 1.64 1.86 2.00 2.10 2.17 2.18 2.30 2.24 2.23 2.28
0.47 0.52 0.47 0.46 0.57 0.68 0.51 0.41 0.41 0.41 0.43 0.39 0.55 0.60 0.76 0.75 0.77 0.90 0.91 0.90 0.75 0.74 0.69 0.67 0.65 0.66 0.73 0.81 0.86 1.00 1.28 1.53 1.59 1.74 1.93 2.05 2.20 2.17 2.15 2.16 2.21 2.31 2.41 2.45
0.41 0.62 0.62 0.62 0.76 0.67 0.57 0.42 0.48 0.54 0.73 0.75 0.85 0.83 0.79 0.75 0.88 0.98 0.84 0.78 0.78 0.68 0.65 0.72 0.76 0.78 0.87 0.93 0.96 1.12 1.32 1.64 1.84 1.89 2.00 2.16 2.27 2.30 2.31 2.31 2.30 2.43 2.55 2.52
0.46 0.62 0.78 0.76 0.92 0.90 0.76 0.56 0.57 0.75 1.31 1.13 1.09 1.10 0.97 0.87 1.08 1.20 1.09 1.00 0.93 0.83 0.75 0.76 0.80 0.93 1.14 1.21 1.24 1.36 1.47 1.60 1.79 1.88 2.01 2.18 2.41 2.46 2.47 2.62 2.72 2.70 2.67 2.55
0.80 0.87 0.91 0.90 0.98 1.09 0.90 0.77 0.81 1.37 1.75 1.37 1.23 1.20 1.15 1.24 1.28 1.22 1.08 1.10 1.02 0.88 0.87 0.85 0.88 1.06 1.32 1.46 1.51 1.62 1.75 1.85 1.85 1.91 2.06 2.25 2.43 2.53 2.59 2.78 2.87 2.87 2.82 2.82
1.01 1.09 1.09 1.11 1.33 1.54 1.05 0.99 1.42 1.73 1.46 1.47 1.48 1.45 1.34 1.30 1.24 1.18 1.10 1.13 1.06 0.95 0.99 1.02 1.07 1.25 1.50 1.70 1.67 1.76 1.85 1.86 1.89 1.87 2.01 2.16 2.32 2.33 2.40 2.70 2.80 2.92 2.97 2.92
1.12 1.23 1.33 1.48 1.63 1.48 1.23 1.30 1.45 1.57 1.73 1.65 1.58 1.65 1.44 1.40 1.29 1.19 1.15 1.12 1.07 1.00 1.02 1.09 1.15 1.36 1.63 1.83 1.86 1.94 1.87 1.95 1.99 2.01 2.12 2.25 2.33 2.38 2.48 2.59 2.64 2.74 2.81 2.77
1.38 1.24 1.46 1.73 1.75 1.63 1.52 1.38 1.21 1.33 1.45 1.44 1.46 1.50 1.47 1.40 1.29 1.19 1.11 1.04 1.02 1.04 1.00 1.08 1.20 1.30 1.42 1.62 1.84 1.97 2.01 2.05 2.06 2.11 2.17 2.27 2.37 2.35 2.42 2.55 2.66 2.76 2.83 2.92
1.63 1.44 1.66 1.98 1.85 1.71 1.70 1.55 1.41 1.48 1.55 1.47 1.40 1.38 1.40 1.37 1.28 1.14 1.11 1.09 1.06 1.06 1.02 1.08 1.20 1.27 1.34 1.41 1.54 1.61 1.74 1.87 1.96 2.07 2.16 2.18 2.21 2.28 2.39 2.46 2.57 2.56 2.63 2.67
1.72 1.73 2.00 2.33 2.00 1.84 1.82 1.62 1.45 1.52 1.51 1.59 1.69 1.65 1.42 1.31 1.38 1.31 1.18 1.10 1.11 1.13 1.13 1.15 1.22 1.25 1.27 1.36 1.55 1.62 1.70 1.84 2.01 2.14 2.17 2.14 2.09 2.14 2.19 2.26 2.28 2.31 2.20 2.19